Probability
0 6 19 19 16 19 19 19 26 26 26 26 26 32 29 23 19 23 23 16 19 19 16 26 29 26 26 26 26 23 19 23 19 16 16 16 19 19 16 13 10 6 16
0 6 19 16 16 19 19 16 19 23 26 26 26 19 23 23 23 19 23 19 16 16 16 19 23 23 23 23 26 23 19 13 10 6 10 10 16 16 16 16 13 10 13
0 3 16 16 16 16 16 13 19 19 19 23 26 32 23 19 29 26 16 16 16 19 19 23 23 23 19 19 23 23 13 6 10 0 0 0 0 16 16 16 16 16 13
0 0 16 16 16 16 16 13 19 16 19 23 26 23 26 29 29 23 23 23 19 19 23 19 19 23 19 16 13 13 10 6 0 0 0 0 0 13 13 16 16 13 13
0 6 13 13 16 16 16 13 13 16 23 23 16 19 19 23 23 23 19 19 19 19 16 16 16 19 16 19 16 10 0 0 0 0 0 0 0 13 13 13 13 13 10
0 10 13 13 13 13 16 16 13 13 19 19 16 16 23 23 23 19 19 19 19 19 16 16 16 13 16 19 13 6 0 0 0 0 0 0 0 10 13 13 13 13 10
3 10 13 16 13 13 13 13 13 16 19 16 16 16 16 19 19 16 16 16 19 16 16 16 16 13 13 13 6 0 0 0 0 0 0 0 0 10 6 6 13 10 6
3 10 13 16 16 13 13 13 13 13 16 16 16 19 16 16 13 13 13 10 16 16 10 13 16 13 13 13 3 0 0 0 0 0 0 0 0 0 0 3 3 3 3
6 6 10 13 13 13 13 13 13 13 13 16 16 13 13 13 13 13 13 13 10 10 10 13 13 13 13 10 0 0 0 0 0 0 0 0 0 0 0 3 3 0 0
3 3 3 6 6 10 13 13 13 10 6 6 10 6 6 6 13 13 13 13 13 6 6 6 10 10 6 0 0 0 0 0 0 0 0 0 3 3 0 3 3 0 0
3 3 3 3 6 6 6 6 6 6 3 0 0 3 0 0 3 6 3 3 10 10 6 6 6 3 0 0 0 0 0 0 0 0 0 3 3 3 0 0 0 0 0
3 3 3 3 3 3 3 3 0 0 0 0 0 0 0 0 0 0 0 0 3 3 3 6 0 0 0 0 0 0 0 0 0 0 0 0 3 0 0 0 0 0 0
3 3 3 3 3 3 3 0 0 0 0 0 0 0 0 0 0 0 0 0 0 0 0 0 0 0 0 0 0 0 0 0 0 0 0 0 6 0 0 0 0 3 0
3 3 3 3 3 3 3 0 0 0 0 0 0 0 0 0 0 0 0 0 0 0 0 0 0 0 0 0 0 0 0 0 0 0 0 0 0 0 0 0 0 0 0
3 3 3 3 3 3 0 0 0 0 0 0 0 0 0 0 0 0 0 0 0 0 0 0 0 0 0 0 0 0 0 0 0 0 0 0 0 0 0 0 0 0 0
0 3 3 0 0 0 0 0 0 0 0 0 0 0 0 0 0 0 0 0 0 0 0 0 0 0 0 0 0 0 0 0 0 0 0 0 0 0 3 0 0 0 0
0 0 0 0 0 0 0 0 0 0 0 0 0 0 0 0 0 0 0 0 0 0 0 0 0 0 0 0 0 0 0 0 0 0 0 0 0 0 0 3 0 0 0
0 0 0 0 0 0 0 0 0 0 0 0 0 0 0 0 0 0 0 0 0 0 0 0 0 0 0 0 0 0 0 0 0 0 0 0 0 0 0 0 0 0 0
0 0 0 0 0 0 0 0 0 0 0 0 0 0 0 0 0 0 0 0 0 0 0 0 0 0 0 0 0 0 0 0 0 0 0 0 0 0 0 0 0 0 0
0 0 0 0 0 0 0 0 0 0 0 0 0 0 0 0 0 0 0 0 0 0 0 0 0 0 0 0 0 0 0 0 0 0 0 0 0 0 0 0 0 0 0
0 0 0 0 0 0 0 0 0 0 0 0 0 0 0 0 0 0 0 0 0 0 0 0 0 0 0 0 0 0 0 0 0 0 0 0 0 0 0 0 0 0 0
0 0 0 0 0 0 0 0 0 0 0 0 0 0 0 0 0 0 0 0 0 0 0 0 0 0 0 0 0 0 0 0 0 0 0 0 0 0 0 0 0 0 0
0 0 0 0 0 0 0 0 0 0 0 0 0 0 0 0 0 0 0 0 0 0 0 0 0 0 0 0 0 0 0 0 0 0 0 0 0 0 0 0 0 0 0
0 0 0 0 0 0 0 0 0 0 0 0 0 0 0 0 0 0 0 0 0 0 0 0 0 0 0 0 0 0 0 0 0 0 0 0 0 0 0 0 0 0 0
0 0 0 0 0 0 0 0 0 0 0 0 0 0 0 0 0 0 0 0 0 0 0 0 0 0 0 0 0 0 0 0 0 0 0 0 0 0 0 0 0 0 0
0 0 0 0 0 0 0 0 0 0 0 0 0 0 0 0 0 0 0 0 0 0 0 0 0 0 0 0 0 0 0 0 0 0 0 0 0 0 0 0 0 0 0
Height
5818 5819 5820 5821 5823 5824 5826 5827 5828 5829 5830 5832 5833 5834 5835 5836 5837 5839 5840 5841 5842 5843 5844 5845 5846 5847 5848 5849 5850 5851 5852 5852 5853 5854 5855 5856 5856 5857 5858 5858 5859 5859 5859
5816 5817 5818 5819 5820 5822 5823 5825 5826 5827 5828 5830 5831 5832 5833 5834 5836 5837 5838 5840 5841 5842 5843 5844 5845 5846 5847 5848 5849 5850 5851 5851 5852 5853 5854 5855 5855 5856 5857 5858 5858 5858 5859
5813 5814 5815 5817 5818 5819 5821 5822 5824 5825 5826 5828 5829 5830 5831 5832 5834 5835 5836 5838 5839 5840 5841 5842 5844 5845 5846 5847 5848 5848 5849 5850 5851 5852 5853 5854 5854 5855 5856 5857 5857 5858 5858
5810 5811 5812 5814 5815 5817 5818 5820 5821 5823 5824 5825 5827 5828 5829 5830 5831 5833 5834 5836 5837 5838 5839 5841 5842 5843 5844 5845 5846 5847 5848 5849 5850 5851 5852 5852 5853 5854 5855 5855 5856 5856 5857
5806 5808 5809 5811 5812 5813 5815 5816 5818 5820 5821 5822 5824 5825 5827 5828 5829 5831 5832 5833 5835 5836 5837 5838 5840 5841 5842 5843 5844 5845 5846 5847 5848 5849 5850 5851 5852 5852 5853 5854 5854 5855 5855
5803 5804 5806 5807 5809 5810 5811 5813 5815 5816 5818 5819 5821 5822 5824 5825 5827 5828 5829 5831 5832 5833 5835 5836 5837 5838 5839 5841 5842 5843 5844 5845 5846 5847 5848 5849 5850 5850 5851 5852 5852 5853 5854
5799 5800 5802 5803 5805 5806 5808 5809 5811 5812 5814 5816 5817 5819 5820 5822 5823 5825 5826 5828 5829 5830 5831 5833 5834 5835 5836 5838 5839 5840 5841 5843 5844 5845 5846 5847 5847 5848 5849 5849 5850 5850 5851
5794 5796 5798 5799 5801 5803 5804 5806 5807 5809 5810 5812 5814 5815 5817 5818 5820 5821 5823 5824 5826 5827 5828 5829 5830 5832 5833 5834 5836 5837 5838 5839 5840 5841 5843 5844 5844 5845 5846 5846 5847 5848 5848
5790 5791 5793 5795 5796 5798 5800 5801 5803 5804 5806 5808 5809 5811 5812 5814 5816 5817 5819 5820 5822 5823 5824 5825 5827 5828 5829 5831 5832 5833 5834 5836 5837 5838 5839 5840 5841 5842 5842 5843 5844 5844 5845
5785 5786 5788 5790 5791 5793 5795 5796 5798 5800 5801 5803 5805 5806 5808 5809 5811 5813 5814 5816 5817 5819 5820 5821 5822 5824 5825 5826 5828 5829 5830 5831 5833 5834 5835 5836 5837 5837 5838 5839 5840 5840 5841
5779 5781 5782 5784 5786 5788 5789 5791 5793 5794 5796 5798 5800 5801 5803 5804 5806 5808 5809 5811 5812 5814 5815 5816 5818 5819 5820 5822 5823 5824 5826 5827 5828 5829 5830 5831 5832 5833 5834 5835 5835 5836 5837
5773 5775 5776 5778 5780 5782 5784 5785 5787 5789 5790 5792 5794 5796 5797 5799 5800 5802 5804 5805 5807 5808 5810 5811 5812 5814 5815 5816 5818 5819 5820 5821 5823 5824 5825 5826 5827 5828 5829 5830 5830 5831 5832
5766 5768 5770 5772 5774 5775 5777 5779 5781 5782 5784 5786 5788 5789 5791 5793 5794 5796 5798 5799 5801 5802 5804 5805 5806 5808 5809 5810 5812 5813 5814 5816 5817 5818 5820 5821 5821 5822 5823 5824 5825 5826 5827
5758 5760 5762 5764 5766 5768 5770 5772 5774 5775 5777 5779 5781 5783 5784 5786 5788 5789 5791 5793 5794 5796 5797 5799 5800 5801 5802 5804 5805 5807 5808 5809 5811 5812 5813 5814 5815 5816 5817 5818 5819 5820 5822
5750 5752 5754 5756 5758 5760 5762 5764 5766 5768 5770 5772 5773 5775 5777 5779 5780 5782 5784 5785 5787 5788 5790 5791 5793 5794 5796 5797 5798 5800 5801 5803 5804 5805 5807 5808 5809 5810 5811 5812 5813 5814 5815
5741 5743 5745 5747 5749 5751 5753 5756 5758 5760 5761 5763 5765 5767 5769 5771 5773 5774 5776 5777 5779 5780 5782 5783 5785 5787 5788 5789 5791 5792 5794 5795 5797 5798 5799 5800 5802 5803 5804 5805 5806 5808 5809
5732 5734 5736 5738 5740 5742 5744 5746 5748 5751 5753 5754 5757 5759 5760 5762 5764 5766 5768 5769 5770 5772 5773 5775 5776 5778 5780 5781 5783 5784 5786 5787 5789 5790 5791 5793 5794 5795 5796 5798 5799 5800 5802
5722 5724 5726 5728 5730 5732 5734 5736 5738 5741 5743 5745 5747 5749 5751 5753 5755 5756 5758 5760 5761 5762 5764 5766 5767 5769 5771 5772 5774 5775 5777 5778 5780 5781 5783 5784 5785 5787 5788 5789 5791 5792 5794
5711 5713 5715 5717 5720 5722 5724 5726 5728 5731 5733 5735 5737 5739 5741 5743 5745 5746 5748 5750 5751 5752 5754 5756 5757 5759 5761 5763 5764 5766 5767 5769 5770 5771 5773 5775 5776 5778 5779 5781 5782 5784 5785
5700 5702 5704 5706 5709 5711 5713 5715 5718 5720 5722 5724 5726 5728 5730 5732 5734 5736 5738 5739 5741 5742 5744 5745 5747 5749 5751 5752 5754 5755 5757 5759 5760 5762 5763 5765 5766 5768 5769 5771 5772 5774 5775
5688 5690 5693 5695 5697 5700 5702 5704 5707 5709 5711 5713 5715 5717 5719 5721 5723 5724 5726 5728 5730 5731 5733 5734 5736 5738 5739 5741 5743 5744 5746 5748 5749 5751 5752 5754 5756 5757 5759 5760 5762 5763 5765
5676 5678 5681 5683 5685 5688 5690 5692 5695 5697 5699 5702 5704 5706 5707 5709 5711 5713 5715 5716 5718 5720 5721 5723 5724 5726 5727 5729 5731 5733 5735 5737 5738 5740 5741 5743 5744 5746 5747 5749 5750 5752 5754
5664 5666 5668 5671 5673 5675 5677 5679 5682 5684 5687 5690 5692 5694 5696 5697 5699 5701 5703 5704 5706 5707 5709 5710 5712 5713 5715 5717 5718 5720 5722 5724 5726 5729 5729 5731 5733 5734 5735 5737 5738 5740 5742
5651 5653 5655 5657 5660 5662 5664 5666 5669 5672 5675 5677 5679 5681 5683 5685 5686 5688 5690 5691 5693 5694 5696 5697 5699 5700 5702 5703 5705 5707 5709 5711 5713 5716 5718 5719 5720 5721 5723 5724 5726 5728 5729
5638 5640 5642 5644 5646 5648 5651 5653 5656 5658 5661 5663 5665 5667 5669 5671 5673 5675 5676 5678 5680 5681 5682 5684 5685 5687 5688 5690 5692 5693 5695 5698 5699 5702 5705 5707 5708 5709 5710 5711 5712 5714 5716
5624 5626 5628 5630 5632 5634 5637 5639 5641 5644 5646 5648 5651 5653 5655 5657 5659 5661 5663 5664 5666 5667 5669 5670 5671 5673 5674 5676 5678 5679 5681 5684 5686 5687 5690 5692 5694 5695 5696 5697 5698 5700 5702
Wind_Speed
16 15 14 13 14 13 13 12 12 11 11 10 10 10 9 9 9 9 8 7 7 7 6 6 5 5 5 5 5 5 5 5 5 5 5 5 5 5 4 4 3 3 2
17 16 15 15 14 14 14 13 13 13 12 12 12 11 11 10 10 10 10 9 8 8 8 7 7 6 6 6 6 6 6 6 6 6 6 6 6 6 5 5 4 4 3
18 17 17 16 15 15 15 14 14 14 14 13 12 12 12 11 11 11 11 11 10 9 9 8 8 7 7 8 8 7 7 7 7 7 6 6 7 7 6 6 5 5 4
19 18 18 18 17 16 16 16 15 15 15 14 14 13 13 13 13 12 12 12 11 11 10 10 9 9 8 9 9 8 8 8 8 8 7 7 7 7 8 7 7 6 6
20 20 20 20 19 18 18 18 17 17 17 16 15 14 14 14 14 14 13 13 13 13 13 12 11 11 10 10 10 10 9 9 9 9 9 8 8 8 8 9 8 8 8
22 22 21 21 21 20 20 20 19 19 18 18 17 17 16 16 16 15 15 14 14 14 14 14 14 14 13 12 12 12 11 11 11 11 10 10 10 9 9 10 10 10 10
23 23 22 22 22 22 22 21 21 21 20 20 19 19 18 18 17 17 17 16 16 16 15 16 16 16 15 15 15 14 14 13 13 13 13 12 12 11 11 11 12 12 12
23 24 24 24 24 24 23 23 23 22 22 22 21 21 20 20 19 19 19 18 18 17 17 17 17 17 17 17 17 17 16 16 16 16 15 15 15 14 14 13 14 14 14
25 25 24 25 25 25 25 25 24 24 23 23 23 22 22 22 21 21 21 20 20 20 19 19 19 18 18 19 19 19 19 19 19 18 18 18 17 17 17 16 16 16 16
27 26 26 26 26 26 26 26 26 26 25 24 24 24 24 23 23 23 23 22 22 22 22 21 21 21 21 21 21 22 22 22 21 21 20 20 20 19 19 19 19 18 19
28 28 28 28 27 27 27 27 28 28 27 27 26 26 25 25 25 25 25 25 25 24 24 24 24 23 23 23 23 24 24 24 24 23 23 22 22 22 22 21 21 21 21
31 31 30 30 30 29 29 29 29 29 29 29 28 28 28 27 27 27 27 27 27 27 27 27 26 26 26 26 26 26 26 26 25 25 25 25 24 24 24 24 24 23 23
33 33 32 32 32 32 32 32 31 31 31 31 31 30 30 30 29 29 29 29 29 29 29 29 29 29 28 28 28 28 28 27 27 27 27 27 27 26 26 26 26 25 25
35 34 34 34 34 34 34 34 34 33 33 33 33 32 32 32 32 32 31 31 31 31 31 31 31 31 31 30 29 30 29 29 29 29 29 29 28 28 28 28 28 27 27
37 37 37 36 36 36 36 36 35 35 35 35 35 34 34 34 34 33 33 33 33 33 33 34 33 33 32 32 31 31 31 31 30 30 31 30 30 29 29 29 29 28 28
39 39 39 39 39 38 38 38 38 38 38 37 37 37 36 36 36 36 35 35 35 35 35 35 35 35 34 34 33 33 33 33 33 32 32 32 32 31 31 31 31 30 30
41 41 41 41 41 40 40 40 40 40 40 40 40 39 39 38 38 38 38 38 38 38 37 37 37 37 37 37 36 36 36 35 35 35 34 34 34 34 34 34 33 33 32
43 42 42 42 42 42 42 42 43 42 42 42 41 41 41 41 40 40 40 40 40 40 40 39 39 39 38 38 38 38 38 38 38 38 37 37 37 36 36 36 36 35 35
44 44 43 43 43 43 44 44 44 44 44 43 43 43 43 43 43 42 42 42 41 41 41 41 41 41 41 40 41 41 40 40 40 40 40 39 39 39 39 38 38 38 37
46 46 46 45 45 45 45 46 46 45 45 45 45 45 45 45 44 44 44 44 44 43 43 43 43 43 43 42 42 43 43 43 43 42 42 42 41 41 41 41 40 40 40
47 48 48 47 47 47 47 47 47 47 47 47 47 46 46 46 46 46 46 46 46 46 45 45 45 45 45 45 45 45 45 45 44 44 44 44 44 44 43 43 42 42 42
47 48 48 48 48 48 48 48 48 48 48 48 48 48 47 48 48 47 47 47 47 47 47 47 47 47 47 47 48 47 47 47 47 46 46 46 46 46 45 44 45 45 45
47 47 48 49 49 49 50 50 50 50 50 49 49 50 49 49 49 48 48 48 48 48 48 48 48 48 49 49 50 49 49 48 48 48 48 48 47 47 47 47 47 46 46
48 48 49 49 50 51 52 52 52 52 52 51 51 51 52 51 51 51 51 50 50 50 50 50 51 51 51 51 51 52 51 50 50 49 49 49 49 49 49 48 48 48 48
48 49 49 50 51 52 53 54 54 54 54 53 53 53 53 52 53 53 53 52 52 52 51 51 52 52 52 52 52 53 53 53 52 51 51 50 50 50 50 50 50 50 50
47 49 50 50 51 52 54 55 55 55 55 55 54 54 54 54 53 53 54 54 54 54 53 52 52 53 54 54 54 54 54 54 53 53 52 51 51 50 51 51 51 50 51
Wind_Direction
239 240 240 238 235 235 234 234 237 237 237 236 234 233 232 233 235 232 229 231 233 239 242 243 238 234 231 230 231 233 233 232 231 231 231 229 225 222 216 213 216 217 222
238 239 240 240 237 236 236 237 239 239 239 239 237 236 236 236 237 236 234 233 235 236 237 238 237 241 242 239 237 238 239 237 237 237 234 230 228 228 229 228 233 233 236
238 238 239 240 240 240 239 239 240 241 241 240 239 239 238 239 238 237 237 237 237 236 236 239 240 243 245 243 242 242 240 241 241 238 235 232 231 233 235 237 237 239 244
239 239 239 240 242 241 241 241 242 242 242 242 242 241 241 240 238 238 238 240 241 239 238 239 242 243 246 245 244 246 246 248 245 241 237 237 238 238 238 239 241 244 249
242 241 240 241 242 243 242 243 244 243 243 243 244 243 243 242 241 240 240 240 240 240 240 240 243 245 248 247 245 246 248 248 246 242 240 241 243 244 245 245 245 247 251
245 244 243 243 243 244 243 243 244 244 244 244 244 244 244 244 243 242 241 240 239 241 243 244 245 247 249 249 249 248 247 248 247 246 246 246 246 248 251 251 249 249 251
247 246 245 245 244 244 244 244 244 244 244 244 244 244 245 245 246 244 243 242 241 243 245 247 247 248 250 250 250 251 250 250 249 249 248 249 249 252 255 255 253 250 252
249 249 247 247 247 246 244 244 245 245 245 244 244 245 246 247 249 248 246 245 244 244 246 249 250 251 252 252 252 252 252 252 251 252 251 250 251 253 255 257 257 254 253
250 250 249 247 247 246 246 244 244 246 246 247 246 246 246 247 248 249 249 249 248 247 248 250 253 254 254 254 254 254 254 253 253 253 254 254 254 255 256 257 259 258 256
248 249 249 247 247 247 246 246 245 246 247 248 249 248 248 249 249 250 251 251 251 250 250 251 254 255 256 256 256 255 255 254 254 255 255 256 256 257 257 258 259 260 258
248 249 249 249 248 248 248 247 246 246 247 248 249 250 250 251 251 252 253 253 253 252 252 253 255 256 258 258 258 257 257 256 256 256 255 256 257 258 258 258 259 260 260
250 250 250 249 249 249 249 248 248 248 249 250 250 251 251 252 252 253 254 255 255 255 255 255 255 256 258 259 258 258 258 257 257 257 257 257 258 258 258 258 259 260 260
250 251 251 250 250 250 250 250 250 251 251 252 251 251 252 252 253 253 254 256 257 257 257 256 256 256 258 258 257 257 258 258 258 258 258 258 258 259 259 260 261 261 261
252 252 252 252 251 251 251 251 251 251 252 252 252 253 253 253 253 254 254 256 257 258 258 257 257 257 257 257 257 257 257 258 259 259 259 259 259 259 260 260 261 261 261
252 253 252 252 252 252 252 252 252 252 252 253 253 253 253 255 255 255 256 257 257 258 258 258 258 257 257 257 257 258 257 258 259 259 259 259 260 260 260 261 261 261 261
253 253 253 253 253 253 252 252 252 252 252 252 253 254 254 254 256 257 257 257 257 258 258 258 258 258 257 258 258 257 258 258 259 259 259 259 260 260 261 261 261 261 261
254 253 253 253 253 253 252 252 252 252 253 253 253 254 254 255 256 257 258 257 257 257 258 258 258 259 259 258 258 258 258 259 259 259 259 259 259 260 261 262 262 262 262
255 254 254 253 253 253 252 252 252 252 252 253 254 255 255 255 256 257 257 258 258 258 257 258 258 259 260 259 259 258 258 258 259 259 259 259 259 260 261 262 262 262 262
254 255 254 253 253 253 253 252 252 252 252 253 254 254 255 255 256 256 257 258 258 258 258 258 258 259 259 259 259 258 258 258 259 260 260 260 260 260 261 261 262 262 262
254 254 254 253 253 253 253 253 253 253 253 253 253 254 255 255 256 256 257 258 258 258 259 259 259 259 259 258 258 258 258 258 259 259 259 260 260 260 261 261 262 262 262
255 254 254 254 254 254 254 254 253 253 253 254 254 254 255 256 256 256 257 258 258 259 260 260 260 259 259 258 257 258 258 258 259 259 259 259 260 260 261 261 261 262 262
255 255 255 255 254 254 253 253 253 253 253 254 254 254 255 256 256 257 258 259 259 260 261 261 261 260 259 258 258 258 258 258 259 259 260 260 260 260 260 260 261 261 262
255 256 256 255 254 254 253 253 253 254 254 254 255 254 255 257 257 257 258 258 259 259 260 261 261 260 260 259 258 258 258 258 259 259 260 260 261 261 260 260 260 261 261
256 255 256 255 254 254 254 253 254 254 254 255 255 255 255 256 257 257 258 258 259 260 260 261 261 261 260 259 259 258 258 258 258 258 259 260 261 261 261 261 261 261 261
256 255 255 255 255 254 254 254 254 254 254 254 255 255 255 256 257 257 257 258 258 259 260 260 261 261 260 259 260 259 258 258 259 259 259 260 261 262 262 261 261 261 261
256 256 256 256 256 255 255 255 255 255 254 255 255 255 255 256 257 257 257 258 259 259 260 261 261 261 261 260 260 260 259 259 259 259 259 260 261 261 262 261 261 261 262